time_stamp(utc),avg(mph),gust(mph),direction(deg),12m_air_temp(f),sonic_u(cm/s),sonic_v(cm/s),sonic_w(cm/s),pressure,2m_air_temp(f),pyranometer(W/m^2)
"2018-02-18 00:02:58+00",9.4,10.4,,33.9,416,-30,14,1020.77,33.3,0
"2018-02-18 00:07:58+00",9.5,10.5,,34,406,-21,15,1020.59,33.5,0
"2018-02-18 00:12:58+00",7.5,8.5,,34.2,327,-11,16,1020.64,33.7,0
"2018-02-18 00:17:58+00",7.7,8.7,,34.4,337,-14,14,1020.62,33.9,0
"2018-02-18 00:22:58+00",10.4,11.4,,34.6,453,-3,19,1020.31,34.1,0
"2018-02-18 00:27:58+00",11.0,13.0,,34.8,482,33,21,1019.74,34.3,0
"2018-02-18 00:32:58+00",11.4,12.4,,34.9,502,1,27,1019.55,34.5,0
"2018-02-18 00:37:58+00",9.0,10.0,,35.2,389,36,18,1019.53,34.7,0
"2018-02-18 00:42:58+00",8.9,9.9,,35.3,388,59,26,1019.48,34.9,0
"2018-02-18 00:47:58+00",8.9,9.9,,35.4,379,106,19,1019.49,35,0
"2018-02-18 00:52:58+00",8.3,10.3,,35.5,339,133,12,1019.41,35.1,0
"2018-02-18 00:57:58+00",7.3,8.3,,35.6,285,135,11,1019.72,35.2,0
"2018-02-18 01:02:58+00",7.0,8.0,,35.7,257,163,11,1019.79,35.3,0
"2018-02-18 01:07:58+00",6.4,7.4,,35.8,235,139,18,1019.73,35.3,0
"2018-02-18 01:12:58+00",6.6,7.6,,35.9,221,169,16,1019.63,35.4,0
"2018-02-18 01:17:58+00",5.7,5.7,,35.9,139,185,8,1019.7,35.5,0
"2018-02-18 01:22:58+00",5.7,7.7,,35.8,112,210,9,1019.63,35.4,0
"2018-02-18 01:27:58+00",5.9,6.9,,35.8,54,236,3,1019.38,35.4,0
"2018-02-18 01:32:58+00",7.4,8.4,,35.8,45,310,7,1019.26,35.4,0
"2018-02-18 01:37:58+00",7.4,8.4,,35.7,36,308,6,1019.02,35.4,0
"2018-02-18 01:42:58+00",7.6,8.6,,35.8,52,319,4,1018.75,35.4,0
"2018-02-18 01:47:58+00",7.3,8.3,,35.9,21,311,8,1018.72,35.5,0
"2018-02-18 01:52:58+00",6.6,7.6,,35.9,54,269,-1,1018.63,35.6,0
"2018-02-18 01:57:58+00",6.8,7.8,,35.9,-46,287,17,1018.49,35.7,0
"2018-02-18 02:02:58+00",5.7,6.7,,35.8,-34,243,25,1018.53,35.7,0
"2018-02-18 02:07:58+00",6.5,7.5,,35.8,47,266,3,1018.43,35.6,0
"2018-02-18 02:12:58+00",5.9,6.9,,35.7,19,248,5,1018.45,35.6,0
"2018-02-18 02:17:58+00",5.6,6.6,,35.7,53,223,0,1018.38,35.6,0
"2018-02-18 02:22:58+00",5.7,6.7,,35.7,146,175,3,1018.35,35.5,0
"2018-02-18 02:27:58+00",6.4,8.4,,35.8,190,177,3,1018.14,35.6,0
"2018-02-18 02:32:58+00",7.7,8.7,,35.8,253,205,14,1018.03,35.7,0
"2018-02-18 02:37:58+00",7.6,8.6,,36,275,178,17,1017.82,35.8,0
"2018-02-18 02:42:58+00",9.2,10.2,,36,353,193,13,1017.37,35.9,0
"2018-02-18 02:47:58+00",7.6,8.6,,36.1,287,156,18,1017.14,36,0
"2018-02-18 02:52:58+00",8.0,9.0,,36.1,313,150,17,1016.84,36,0
"2018-02-18 02:57:58+00",8.7,9.7,,36.3,368,118,23,1016.62,36.2,0
"2018-02-18 03:02:58+00",10.1,12.1,,36.5,431,83,27,1016.34,36.3,0
"2018-02-18 03:07:58+00",12.6,13.6,,36.2,550,48,35,1016.17,36.3,0
"2018-02-18 03:12:58+00",10.8,11.8,,36.3,468,97,42,1016.13,36.3,0
"2018-02-18 03:17:58+00",9.7,10.7,,36.4,417,110,9,1016.25,36.3,0
"2018-02-18 03:22:58+00",7.4,9.4,,36.4,310,106,23,1016.35,36.4,0
"2018-02-18 03:27:58+00",6.3,8.3,,36.5,248,111,10,1016.62,36.4,0
"2018-02-18 03:32:58+00",4.7,5.7,,36.5,106,157,10,1016.91,36.4,0
"2018-02-18 03:37:58+00",4.0,5.0,,36.6,-15,153,15,1016.85,36.4,0
"2018-02-18 03:42:58+00",4.6,5.6,,36.6,26,184,0,1016.97,36.4,0
"2018-02-18 03:47:58+00",4.5,5.5,,36.6,117,131,6,1016.53,36.4,0
"2018-02-18 03:52:58+00",5.2,5.2,,36.7,113,186,10,1016.24,36.5,0
"2018-02-18 03:57:58+00",4.9,5.9,,36.7,23,199,7,1016.43,36.5,0
"2018-02-18 04:02:58+00",4.4,4.4,,36.7,31,176,-5,1016.62,36.5,0
"2018-02-18 04:07:58+00",3.2,4.2,,36.7,81,96,0,1016.26,36.5,0
"2018-02-18 04:12:58+00",5.0,6.0,,36.7,130,144,0,1015.99,36.6,0
"2018-02-18 04:17:58+00",5.5,5.5,,36.8,3644,142,-1633,1015.68,36.7,0
"2018-02-18 04:22:58+00",5.3,5.3,,36.8,989,119,-364,1015.56,36.7,0
"2018-02-18 04:27:58+00",4.2,5.2,,36.9,633,147,-266,1015.67,36.7,0
"2018-02-18 04:32:58+00",5.5,6.5,,36.5,478,216,-211,1015.45,36.6,0
"2018-02-18 04:37:58+00",4.3,5.3,,36.5,425,170,-189,1015.14,36.5,0
"2018-02-18 04:42:58+00",6.0,7.0,,36.4,170,239,-97,1015.22,36.4,0
"2018-02-18 04:47:58+00",6.3,7.3,,36.4,-30,258,-2,1015.25,36.4,0
"2018-02-18 04:52:58+00",7.6,7.6,,36.2,-33,316,-6,1015.11,36.3,0
"2018-02-18 04:57:58+00",7.3,8.3,,36.1,-108,288,23,1015.41,36.2,0
"2018-02-18 05:02:58+00",6.2,7.2,,36,-24,248,-19,1015.32,36.1,0
"2018-02-18 05:07:58+00",5.1,6.1,,35.9,35,204,-32,1015.18,36,0
"2018-02-18 05:12:58+00",4.9,5.9,,35.8,77,194,-36,1014.72,35.9,0
"2018-02-18 05:17:58+00",6.3,6.3,,35.8,118,249,-62,1014.66,35.8,0
"2018-02-18 05:22:58+00",6.8,7.8,,35.7,-65,281,3,1014.72,35.8,0
"2018-02-18 05:27:58+00",7.5,7.5,,35.7,-184,261,23,1014.9,35.7,0
"2018-02-18 05:32:58+00",8.0,8.0,,35.8,-217,265,25,1014.89,35.8,0
"2018-02-18 05:37:58+00",9.0,10.0,,35.6,-239,307,32,1014.8,35.7,0
"2018-02-18 05:42:58+00",8.9,9.9,,35.5,-239,306,33,1014.77,35.5,0
"2018-02-18 05:47:58+00",8.2,9.2,,35.2,-167,307,21,1014.56,35.3,0
"2018-02-18 05:52:58+00",5.0,6.0,,35.2,-90,188,18,1014.33,35.1,0
"2018-02-18 05:57:58+00",7.2,8.2,,35.1,-186,243,24,1014.58,35.1,0
"2018-02-18 06:02:58+00",9.4,9.4,,34.9,-228,334,28,1014.71,35,0
"2018-02-18 06:07:58+00",9.3,10.3,,34.8,-231,326,31,1014.65,34.9,0
"2018-02-18 06:12:58+00",10.3,11.3,,34.5,-261,361,26,1014.65,34.7,0
"2018-02-18 06:17:58+00",8.4,9.4,,34.4,-206,294,17,1014.61,34.5,0
"2018-02-18 06:22:58+00",8.6,9.6,,34.4,-228,279,32,1014.55,34.4,0
"2018-02-18 06:27:58+00",11.2,12.2,,34.3,-367,327,34,1014.82,34.5,0
"2018-02-18 06:32:58+00",12.3,13.3,,34.2,-380,379,32,1015.26,34.4,0
"2018-02-18 06:37:58+00",13.7,14.7,,34.2,-418,430,45,1015.21,34.4,0
"2018-02-18 06:42:58+00",14.6,16.6,,34.1,-452,436,76,1015.43,34.3,0
"2018-02-18 06:47:58+00",12.5,14.5,,34,-420,364,65,1015.45,34.2,0
"2018-02-18 06:52:58+00",13.0,14.0,,34,-470,325,31,1015.42,34.2,0
"2018-02-18 06:57:58+00",12.2,13.2,,33.9,-450,305,35,1015.37,34.1,0
"2018-02-18 07:02:58+00",13.3,15.3,,34,-496,319,38,1015.5,34,0
"2018-02-18 07:07:58+00",11.3,13.3,,34.1,-431,258,74,1015.57,34.2,0
"2018-02-18 07:12:58+00",14.2,16.2,,34,-522,349,36,1015.65,34.1,0
"2018-02-18 07:17:58+00",15.2,17.2,,34.2,-612,273,41,1015.71,34.2,0
"2018-02-18 07:22:58+00",14.6,16.6,,34.2,-582,289,37,1015.72,34.2,0
"2018-02-18 07:27:58+00",16.4,18.4,,34.2,-625,380,45,1015.8,34.1,0
"2018-02-18 07:32:58+00",15.7,17.7,,34.3,-653,302,64,1015.89,34.2,0
"2018-02-18 07:37:58+00",15.4,17.4,,34.3,-610,319,50,1015.73,34.2,0
"2018-02-18 07:42:58+00",16.9,18.9,,34.5,-644,390,48,1015.94,34.4,0
"2018-02-18 07:47:58+00",14.1,16.1,,34.6,-585,259,51,1015.87,34.5,0
"2018-02-18 07:52:58+00",14.0,16.0,,34.8,-608,168,57,1015.79,34.7,0
"2018-02-18 07:57:58+00",14.8,15.8,,34.7,-628,215,53,1015.57,34.8,0
"2018-02-18 08:02:58+00",13.2,15.2,,34.8,-578,179,79,1015.74,34.7,0
"2018-02-18 08:07:58+00",16.4,18.4,,34.7,-721,154,71,1015.86,34.9,0
"2018-02-18 08:12:58+00",16.4,18.4,,34.5,-719,179,58,1015.99,34.7,0
"2018-02-18 08:17:58+00",14.2,16.2,,34.4,-618,157,54,1016.05,34.6,0
"2018-02-18 08:22:58+00",16.6,19.6,,34.4,-746,156,23,1015.98,34.7,0
"2018-02-18 08:27:58+00",17.7,19.7,,34.6,-812,360,-26,1016.2,34.7,0
"2018-02-18 08:32:58+00",17.2,20.2,,34.8,-744,361,-5,1016.18,34.8,0
"2018-02-18 08:37:58+00",16.7,18.7,,34.9,-941,684,-210,1016.32,34.8,0
"2018-02-18 08:42:58+00",17.6,20.6,,34.9,-1071,842,-248,1016.51,34.9,0
"2018-02-18 08:47:58+00",17.7,19.7,,35,20000,0,-1,1016.6,35,-0.1
"2018-02-18 08:52:58+00",22.6,25.6,,35.1,-522,-218,481,1016.99,35,0
"2018-02-18 08:57:58+00",21.7,26.7,,35.3,-827,-26,335,1017.16,35.1,0
"2018-02-18 09:02:58+00",22.4,25.4,,35.2,-657,92,301,1017.37,35.1,0
"2018-02-18 09:07:58+00",20.0,25.0,,35.2,-550,73,306,1017.49,35.1,0
"2018-02-18 09:12:58+00",22.1,27.1,,35.3,-1496,1395,-474,1017.33,35.1,0
"2018-02-18 09:17:58+00",19.3,23.3,,35.5,20000,0,-1,1017.11,35.3,-0.1
"2018-02-18 09:22:58+00",23.8,25.8,,35.5,208,-1787,1282,1017.24,35.3,0
"2018-02-18 09:27:58+00",24.5,27.5,,35.6,-191,-1151,931,1017.21,35.5,0
"2018-02-18 09:32:58+00",24.2,28.2,,35.6,-132,-1297,1035,1017.76,35.6,0
"2018-02-18 09:37:58+00",21.6,26.6,,35.6,20000,0,-1,1017.87,35.5,-0.1
"2018-02-18 09:42:58+00",22.9,24.9,,35.7,-599,-309,503,1018.15,35.6,0
"2018-02-18 09:47:58+00",28.1,30.1,,35.6,-1312,852,-139,1018.21,35.6,0
"2018-02-18 09:52:58+00",24.2,27.2,,35.8,266,-2076,1407,1018.13,35.7,0
"2018-02-18 10:27:58+00",20.8,23.8,,35.8,20000,0,-1,1018.87,35.6,-0.1
"2018-02-18 10:32:58+00",21.2,24.2,,35.8,593,-2182,1481,1018.98,35.6,0
"2018-02-18 10:37:58+00",22.4,24.4,,35.8,866,-2655,1819,1019.14,35.6,0
"2018-02-18 10:42:58+00",23.4,26.4,,35.8,1564,-3672,2416,1019.22,35.7,0
"2018-02-18 10:47:58+00",19.6,21.6,,35.8,757,-2351,1571,1019.39,35.7,0
"2018-02-18 10:52:58+00",20.7,24.7,,35.8,99,-1268,998,1019.71,35.7,0
"2018-02-18 10:57:58+00",25.0,30.0,,35.7,50,-1292,1052,1019.96,35.7,0
"2018-02-18 11:02:58+00",25.3,29.3,,35.8,-557,-256,504,1020.21,35.6,0
"2018-02-18 11:07:58+00",23.6,25.6,,35.7,-804,268,212,1020.3,35.6,0
"2018-02-18 11:12:58+00",18.4,21.4,,35.7,-723,381,61,1020.54,35.5,0
"2018-02-18 11:17:58+00",19.3,22.3,,35.8,-797,344,59,1020.58,35.6,0
"2018-02-18 11:22:58+00",17.4,19.4,,36,-709,322,51,1020.62,35.8,0
"2018-02-18 11:27:58+00",20.0,22.0,,35.9,-840,297,63,1020.78,35.8,0
"2018-02-18 11:32:58+00",21.8,23.8,,36,-912,350,49,1020.73,35.8,0
"2018-02-18 11:37:58+00",17.6,20.6,,35.8,-782,112,46,1020.96,35.8,0
"2018-02-18 11:42:58+00",18.3,20.3,,35.7,-811,108,50,1021.23,35.7,0
"2018-02-18 11:47:58+00",17.9,19.9,,35.7,-791,115,49,1021.39,35.7,0
"2018-02-18 11:52:58+00",16.6,19.6,,35.6,-718,143,46,1021.55,35.6,0
"2018-02-18 11:57:58+00",17.3,20.3,,35.6,-761,114,46,1021.66,35.5,0
"2018-02-18 12:02:58+00",15.9,18.9,,35.5,-710,21,30,1021.87,35.4,0
"2018-02-18 12:07:58+00",14.7,17.7,,35.4,-674,99,32,1021.99,35.3,0
"2018-02-18 12:12:58+00",14.0,16.0,,35.5,-622,24,45,1022.17,35.3,0
"2018-02-18 12:17:58+00",14.0,16.0,,35.4,-609,4,50,1022.32,35.3,2.3
"2018-02-18 12:22:58+00",12.8,14.8,,35.4,-555,9,37,1022.58,35.3,16.3
"2018-02-18 12:27:58+00",14.9,16.9,,35.4,-635,-111,12,1022.54,35.5,21.5
"2018-02-18 12:32:58+00",11.6,13.6,,35.4,-498,-45,43,1022.44,35.8,32.5
"2018-02-18 12:37:58+00",11.4,13.4,,35.5,-490,-65,39,1022.55,36.1,43.1
"2018-02-18 12:42:58+00",13.7,14.7,,35.6,-596,-44,33,1022.87,36.3,53.5
"2018-02-18 12:47:58+00",12.9,14.9,,35.8,-565,45,28,1022.92,36.5,64.5
"2018-02-18 12:52:58+00",13.9,15.9,,35.8,-617,17,32,1022.81,36.7,70.8
"2018-02-18 12:57:58+00",14.6,16.6,,35.9,-635,-43,26,1023.11,36.8,79.5
"2018-02-18 13:02:58+00",16.5,18.5,,36,-725,-19,24,1023.59,36.9,85.4
"2018-02-18 13:07:58+00",16.7,18.7,,36.1,-747,1,31,1023.65,37.1,98.6
"2018-02-18 13:12:58+00",14.6,16.6,,36.5,-645,48,25,1023.84,37.3,109.7
"2018-02-18 13:17:58+00",14.6,17.6,,36.5,-641,74,42,1024,37.4,126.2
"2018-02-18 13:22:58+00",17.4,19.4,,36.6,-771,54,46,1024.1,37.5,136.8
"2018-02-18 13:27:58+00",14.6,16.6,,36.6,-647,91,56,1024.17,37.6,147.6
"2018-02-18 13:32:58+00",17.3,19.3,,36.7,-746,172,37,1024.22,37.7,157
"2018-02-18 13:37:58+00",15.2,17.2,,36.8,-660,195,60,1024.4,37.8,169.2
"2018-02-18 13:42:58+00",19.0,23.0,,36.9,-797,292,28,1024.67,37.9,174.8
"2018-02-18 13:47:58+00",18.3,20.3,,36.8,-776,280,48,1024.68,37.9,187.6
"2018-02-18 13:52:58+00",16.4,18.4,,37,-698,250,42,1024.77,38.1,197.1
"2018-02-18 13:57:58+00",15.9,18.9,,37.1,-605,370,42,1024.71,38.2,204
"2018-02-18 14:02:58+00",18.6,21.6,,37.3,-749,371,53,1024.9,38.4,212.3
"2018-02-18 14:07:58+00",18.4,20.4,,37.3,-746,348,47,1024.98,38.4,227
"2018-02-18 14:12:58+00",18.2,20.2,,37.3,-661,476,51,1025.18,38.3,176.6
"2018-02-18 14:17:58+00",16.7,18.7,,37.6,-629,424,55,1025.56,38.5,233
"2018-02-18 14:22:58+00",14.3,16.3,,37.5,-487,412,45,1025.65,38.4,231.4
"2018-02-18 14:27:58+00",19.3,22.3,,37.8,-631,576,58,1025.63,38.7,246.6
"2018-02-18 14:32:58+00",16.1,20.1,,37.9,-592,418,71,1025.59,38.8,279.9
"2018-02-18 14:37:58+00",16.7,19.7,,37.8,-568,493,52,1025.68,38.8,274.5
"2018-02-18 14:42:58+00",17.3,18.3,,37.8,-516,586,52,1025.93,38.9,203.5
"2018-02-18 14:47:58+00",19.3,21.3,,37.9,-478,702,40,1026.02,39,237.6
"2018-02-18 14:52:58+00",18.4,21.4,,38.1,-501,651,48,1026.05,39.1,292.2
"2018-02-18 14:57:58+00",18.6,21.6,,38.1,-585,597,51,1026.04,39.2,108.3
"2018-02-18 15:02:58+00",19.3,23.3,,38.1,-582,618,39,1026.26,39.2,209.2
"2018-02-18 15:07:58+00",18.6,20.6,,38.5,-411,723,57,1026.45,39.6,322.5
"2018-02-18 15:12:58+00",23.0,26.0,,38.5,-749,701,59,1026.52,39.8,251.1
"2018-02-18 15:17:58+00",22.1,25.1,,38.4,-450,865,41,1026.5,39.4,257.8
"2018-02-18 15:22:58+00",22.2,26.2,,38.6,-470,855,63,1026.58,39.5,69.5
"2018-02-18 15:27:58+00",18.1,22.1,,38.7,-391,709,46,1026.64,39.8,322.5
"2018-02-18 15:32:58+00",21.2,24.2,,39,-593,745,78,1026.65,40.3,300.7
"2018-02-18 15:37:58+00",19.4,21.4,,39.1,-349,773,23,1026.69,40.5,265.9
"2018-02-18 15:42:58+00",18.5,23.5,,39.1,-397,713,40,1026.87,40.3,335.3
"2018-02-18 15:47:58+00",19.1,24.1,,39.2,-570,643,51,1026.88,40.7,359.3
"2018-02-18 15:52:58+00",18.8,21.8,,39.4,-543,651,58,1027.05,40.9,346
"2018-02-18 15:57:58+00",22.8,25.8,,39.4,-755,688,63,1027.04,40.6,348.4
"2018-02-18 16:02:58+00",22.1,24.1,,39.6,-493,852,41,1027.11,41,350.1
"2018-02-18 16:07:58+00",19.9,23.9,,39.8,-394,777,50,1026.94,41.3,352.6
"2018-02-18 16:12:58+00",24.5,28.5,,39.9,-363,1010,36,1026.89,41.5,354.2
"2018-02-18 16:17:58+00",20.7,23.7,,39.7,-458,788,37,1026.8,41.4,361.9
"2018-02-18 16:22:58+00",18.8,22.8,,40.1,-443,697,27,1026.66,41.8,362.2
"2018-02-18 16:27:58+00",17.7,20.7,,40.2,-535,610,80,1026.68,41.7,313.9
"2018-02-18 16:32:58+00",19.7,22.7,,40.3,-615,641,76,1026.55,42,365.1
"2018-02-18 16:37:58+00",20.8,23.8,,40.5,-536,742,54,1026.65,42.1,371.1
"2018-02-18 16:42:58+00",18.4,20.4,,40.5,-473,676,47,1026.66,42,372.1
"2018-02-18 16:47:58+00",19.1,22.1,,40.6,-562,636,44,1026.83,42.1,373.6
"2018-02-18 16:52:58+00",15.5,17.5,,40.7,-491,481,82,1026.86,42.3,375.7
"2018-02-18 16:57:58+00",20.7,22.7,,40.8,-477,788,32,1026.94,42.4,378
"2018-02-18 17:02:58+00",16.7,18.7,,41.3,-401,646,62,1027.07,42.7,376.8
"2018-02-18 17:07:58+00",17.8,19.8,,41.2,-435,655,32,1026.99,43,376.9
"2018-02-18 17:12:58+00",18.0,19.0,,41,-645,482,38,1026.8,42.9,378.3
"2018-02-18 17:17:58+00",15.2,17.2,,41.6,-413,543,77,1026.75,43.2,378.4
"2018-02-18 17:22:58+00",14.2,18.2,,41.2,-428,444,-3,1026.88,43,377.2
"2018-02-18 17:27:58+00",14.4,16.4,,41.5,-505,403,52,1026.91,43.2,376.1
"2018-02-18 17:32:58+00",17.6,20.6,,41.7,-351,696,58,1026.87,43.4,373.7
"2018-02-18 17:37:58+00",16.9,17.9,,41.9,-504,552,44,1026.93,43.7,374.7
"2018-02-18 17:42:58+00",12.9,15.9,,42,-462,326,30,1027.02,43.7,374
"2018-02-18 17:47:58+00",14.1,17.1,,42,-516,353,17,1027.03,43.9,369.1
"2018-02-18 17:52:58+00",17.5,18.5,,42.1,-609,500,43,1027.12,44,367.5
"2018-02-18 17:57:58+00",15.2,17.2,,42.4,-557,384,35,1027.09,44.1,364.4
"2018-02-18 18:02:58+00",16.1,18.1,,42.5,-494,516,36,1027.23,44.3,360.7
"2018-02-18 18:07:58+00",11.7,13.7,,43,-398,346,58,1027.12,44.7,358.3
"2018-02-18 18:12:58+00",14.1,15.1,,43.1,-412,468,59,1027.14,44.8,353.8
"2018-02-18 18:17:58+00",13.1,14.1,,43.4,-299,482,45,1027.16,45.1,349.8
"2018-02-18 18:22:58+00",13.5,14.5,,43.2,-296,509,8,1027.26,45.1,346
"2018-02-18 18:27:58+00",12.7,15.7,,43.2,-490,283,20,1027.29,45.2,344.4
"2018-02-18 18:32:58+00",13.3,15.3,,43.7,-503,291,38,1027.31,45.5,341.2
"2018-02-18 18:37:58+00",11.9,13.9,,43.6,-371,375,36,1027.19,45.4,331.6
"2018-02-18 18:42:58+00",12.5,17.5,,43.8,-382,405,33,1027.37,45.6,326.6
"2018-02-18 18:47:58+00",10.0,11.0,,43.8,-375,212,20,1027.48,45.7,322.2
"2018-02-18 18:52:58+00",9.9,11.9,,44,-364,255,65,1027.49,45.9,315.6
"2018-02-18 18:57:58+00",12.5,14.5,,44,-447,337,26,1027.28,46,312.8
"2018-02-18 19:02:58+00",12.3,14.3,,44.3,-457,309,22,1027.29,46.1,309.2
"2018-02-18 19:07:58+00",11.3,14.3,,44.6,-365,342,40,1027.52,46.4,303.9
"2018-02-18 19:12:58+00",11.5,12.5,,44.5,-350,369,24,1027.56,46.4,300.8
"2018-02-18 19:17:58+00",14.0,16.0,,44.6,-392,485,39,1027.4,46.5,296.9
"2018-02-18 19:22:58+00",10.1,12.1,,44.5,-337,289,10,1027.28,46.5,289.4
"2018-02-18 19:27:58+00",10.8,11.8,,44.6,-344,333,27,1027.29,46.6,286.8
"2018-02-18 19:32:58+00",11.2,12.2,,44.8,-364,344,34,1027.33,46.7,270.3
"2018-02-18 19:37:58+00",13.9,14.9,,44.9,-413,448,35,1027.27,46.9,277.4
"2018-02-18 19:42:58+00",12.4,14.4,,44.9,-415,373,39,1027.21,46.8,268.9
"2018-02-18 19:47:58+00",13.6,15.6,,44.8,-458,399,33,1027.11,46.7,247.4
"2018-02-18 19:52:58+00",11.5,13.5,,44.9,-431,314,47,1027.23,46.8,251.1
"2018-02-18 19:57:58+00",6.3,8.3,,45,-161,212,5,1027.34,47,245.9
"2018-02-18 20:02:58+00",8.1,9.1,,45.2,-289,198,36,1027.41,47.3,241.7
"2018-02-18 20:07:58+00",11.0,13.0,,45.3,-391,306,59,1027.52,47.5,244.9
"2018-02-18 20:12:58+00",10.1,11.1,,45.4,-395,207,60,1027.63,47.4,232
"2018-02-18 20:17:58+00",6.6,8.6,,45.5,-259,94,88,1027.75,47.7,225.1
"2018-02-18 20:22:58+00",9.1,11.1,,45.5,-321,239,16,1027.85,47.9,216
"2018-02-18 20:27:58+00",10.1,12.1,,45.4,-242,370,35,1027.87,47.7,208
"2018-02-18 20:32:58+00",10.9,12.9,,45.6,-300,388,37,1027.97,47.7,191.8
"2018-02-18 20:37:58+00",13.0,14.0,,45.5,-380,436,28,1027.82,47.5,191.5
"2018-02-18 20:42:58+00",11.1,13.1,,45.5,-319,365,19,1028.09,47.5,181.7
"2018-02-18 20:47:58+00",8.3,10.3,,45.6,-294,238,15,1028.14,47.5,171.8
"2018-02-18 20:52:58+00",10.8,11.8,,45.5,-322,353,29,1028.11,47.4,163.6
"2018-02-18 20:57:58+00",10.6,11.6,,45.5,-380,270,39,1028.21,47.3,151.7
"2018-02-18 21:02:58+00",9.8,10.8,,45.5,-281,331,12,1028.41,47.2,140.1
"2018-02-18 21:07:58+00",7.1,9.1,,45.6,-177,247,10,1028.58,47.3,129.8
"2018-02-18 21:12:58+00",9.9,11.9,,45.7,-377,232,28,1028.61,47.4,111.1
"2018-02-18 21:17:58+00",7.2,8.2,,45.7,-259,194,50,1028.69,47.2,112.1
"2018-02-18 21:22:58+00",8.4,9.4,,45.8,-295,214,16,1028.67,47.3,101
"2018-02-18 21:27:58+00",6.3,7.3,,45.8,-233,155,38,1028.93,47.2,91.8
"2018-02-18 21:32:58+00",10.2,12.2,,45.6,-434,199,54,1029.01,47,60.2
"2018-02-18 21:37:58+00",9.9,10.9,,45.5,-291,325,18,1028.95,46.6,45
"2018-02-18 21:42:58+00",5.3,6.3,,45.6,-205,113,30,1029.13,46.3,35.8
"2018-02-18 21:47:58+00",5.8,5.8,,45.5,-138,200,9,1029.24,46.2,5
"2018-02-18 21:52:58+00",6.2,7.2,,45.4,-199,174,12,1029.36,46.1,0
"2018-02-18 21:57:58+00",7.5,7.5,,45.2,-276,187,23,1029.34,45.8,0
"2018-02-18 22:02:58+00",7.2,8.2,,45.1,-274,178,20,1029.34,45.3,0
"2018-02-18 22:07:58+00",7.3,8.3,,44.8,-295,128,20,1029.55,44.9,0
"2018-02-18 22:12:58+00",5.7,5.7,,44.7,-224,104,16,1029.66,44.5,0
"2018-02-18 22:17:58+00",6.4,7.4,,44.6,-241,149,19,1029.66,44,0
"2018-02-18 22:22:58+00",6.3,6.3,,44.6,-223,157,14,1029.79,43.6,0
"2018-02-18 22:27:58+00",4.6,5.6,,44.5,-153,126,15,1029.86,43.6,0
"2018-02-18 22:32:58+00",4.4,5.4,,44,-89,154,9,1029.72,43.4,0
"2018-02-18 22:37:58+00",6.4,7.4,,44,-138,235,15,1029.62,42.9,0
"2018-02-18 22:42:58+00",5.5,6.5,,43.7,-46,225,4,1029.81,42.1,0
"2018-02-18 22:47:58+00",6.8,6.8,,43.4,-44,284,5,1029.77,41.5,0
"2018-02-18 22:52:58+00",7.1,7.1,,43.5,-42,300,11,1029.86,41,0
"2018-02-18 22:57:58+00",7.4,8.4,,43.6,-41,313,6,1030.25,40.5,0
"2018-02-18 23:02:58+00",7.4,7.4,,43.7,-56,308,9,1030.4,40.1,0
"2018-02-18 23:07:58+00",6.6,6.6,,43.7,-12,274,10,1030.63,39.6,0
"2018-02-18 23:12:58+00",6.8,7.8,,43.2,24,287,3,1030.69,39.5,0
"2018-02-18 23:17:58+00",8.8,9.8,,42.9,-4,372,19,1030.57,39.4,0
"2018-02-18 23:22:58+00",8.1,8.1,,42.9,52,337,9,1030.64,38.8,0
"2018-02-18 23:27:58+00",6.5,6.5,,42.7,-23,269,13,1030.75,38.5,0
"2018-02-18 23:32:58+00",6.9,7.9,,42.5,71,272,0,1030.93,38.3,0
"2018-02-18 23:37:58+00",6.1,6.1,,42.4,150,179,-1,1031.23,38.5,0
"2018-02-18 23:42:58+00",4.2,5.2,,41,173,19,-1,1031.2,38.1,0
"2018-02-18 23:47:58+00",5.5,6.5,,41.1,226,68,4,1031.21,37.7,0
"2018-02-18 23:52:58+00",3.6,4.6,,41.4,140,-43,-1,1031.31,37.4,0
"2018-02-18 23:57:58+00",2.8,3.8,,41.1,112,10,3,1031.11,37.5,0
